Theta_e
319 318 314 313 313 312 313 313 313 313 313 312 313 313 313 313 313 313 310 310 310 314 313 316 312 311 312 311 313 311 312 313 314 312 313 313 312 315 320 324 327 327 328 327 326 331 331 330 330 329 327 326 324 325 325 325 324 323 323 323 324 324 323 322 321 321 320 320 320 319 319 318 318 317 317 318 317 317 317 316 316 315 315 315 315
319 316 313 313 313 312 313 313 313 313 312 312 313 314 315 313 312 311 312 312 312 316 311 313 312 310 310 312 313 312 311 314 316 313 312 313 310 311 318 320 324 326 327 327 327 331 331 329 328 327 325 325 325 325 325 324 324 323 322 322 322 323 322 321 320 320 319 319 319 318 317 317 317 316 316 317 316 316 317 316 315 315 314 314 314
319 316 314 314 315 315 315 314 313 314 315 315 314 315 314 314 315 314 314 313 315 313 310 311 310 310 309 312 313 315 316 316 317 316 316 316 311 309 311 317 320 323 326 328 326 329 329 328 326 324 325 325 325 324 324 324 323 322 322 322 321 321 321 320 319 319 319 318 318 317 317 317 316 316 315 315 315 315 315 315 315 314 314 314 314
318 317 316 315 315 316 316 315 316 317 316 317 315 315 314 315 314 314 314 313 313 314 314 313 310 308 309 313 315 316 318 318 315 315 316 315 310 308 308 310 315 318 319 324 327 328 326 324 323 324 324 325 324 325 324 323 323 322 322 322 321 320 320 319 319 319 319 318 317 316 316 315 315 315 314 314 314 314 314 314 314 313 313 313 313
317 317 316 316 317 316 316 316 318 318 317 316 314 313 313 313 315 312 312 311 312 313 311 310 310 311 310 313 315 317 317 316 316 316 316 314 309 307 307 306 305 312 315 321 325 324 323 323 322 322 323 323 324 323 324 323 323 322 322 322 321 320 320 319 318 318 318 317 316 315 315 315 315 314 314 314 313 313 313 313 313 313 312 312 312
318 316 316 317 317 317 317 318 318 317 317 315 314 314 314 313 315 311 315 312 312 311 312 311 309 307 309 309 313 317 316 314 317 316 315 312 309 306 306 305 306 308 309 315 319 322 322 322 322 321 321 322 322 323 323 323 323 322 322 321 320 319 319 318 318 317 316 316 315 315 314 314 314 313 314 314 313 313 312 312 312 312 312 311 312
318 319 317 317 318 318 317 319 319 318 318 316 316 316 315 316 313 315 311 310 310 310 310 311 310 312 312 313 316 316 318 316 314 313 312 311 309 305 305 305 306 307 306 306 309 314 319 319 319 319 320 320 321 322 322 322 322 321 322 321 320 318 317 317 317 316 315 315 314 313 314 313 313 313 313 313 312 312 312 311 311 311 312 311 312
319 319 318 318 319 319 320 320 318 317 317 315 316 317 316 316 315 315 312 312 310 313 309 313 310 312 310 314 316 316 316 313 313 313 313 310 307 304 304 304 306 305 305 303 303 307 313 314 314 315 317 318 320 321 321 322 321 321 321 320 319 318 317 316 316 315 314 314 313 313 313 312 313 312 313 311 312 311 311 311 311 311 312 311 311
319 319 319 319 319 320 321 320 318 317 317 316 317 317 317 316 314 312 313 314 310 311 309 307 311 311 311 314 315 316 315 314 315 314 312 308 305 304 303 302 305 306 303 301 300 301 306 309 309 309 311 314 317 318 320 321 321 321 320 319 318 317 316 315 314 314 313 313 312 312 312 312 312 312 312 311 310 311 311 310 310 311 311 311 310
320 320 320 321 321 321 321 320 318 317 317 317 318 318 316 316 316 311 312 311 309 310 311 307 307 309 309 310 312 313 314 315 314 310 311 308 306 305 305 304 304 303 301 300 299 297 297 301 304 305 306 310 313 315 316 318 319 320 319 318 318 317 315 314 313 312 312 312 311 311 311 311 311 311 311 310 310 310 310 310 310 310 310 310 310
321 320 320 320 320 320 320 320 319 318 318 317 317 316 315 314 315 312 307 310 311 310 312 311 310 308 308 308 307 310 314 313 311 310 311 309 306 304 303 303 303 301 301 300 298 295 294 293 293 293 297 305 308 311 313 314 315 318 319 317 317 316 315 313 312 312 311 311 311 311 310 310 310 310 311 310 310 310 309 309 309 310 310 310 309
322 321 321 320 320 320 321 321 320 319 317 316 316 316 316 313 312 312 310 308 308 308 308 308 307 307 305 306 307 311 313 311 309 309 308 308 305 303 303 301 302 300 300 300 298 295 294 292 292 290 291 298 303 305 308 309 311 314 316 317 316 316 314 313 312 311 311 311 310 310 310 310 310 310 310 309 310 310 309 309 309 310 309 309 309
321 321 321 320 321 321 321 320 320 319 318 318 318 318 317 316 315 310 312 309 309 306 308 309 312 311 306 304 306 307 307 309 309 307 305 303 303 302 300 301 300 300 300 299 297 296 294 291 289 288 288 287 291 299 301 304 307 310 313 315 315 315 314 313 312 311 310 310 310 309 309 309 309 309 309 309 309 310 310 310 309 310 310 309 309
320 321 321 321 321 321 320 321 320 319 319 319 318 315 316 314 312 309 309 313 311 310 311 312 307 307 306 305 306 308 307 306 304 303 303 303 302 302 300 300 299 299 299 298 297 296 294 292 289 288 287 288 288 289 292 294 299 306 309 311 313 314 313 313 311 310 309 309 309 309 309 308 308 309 309 309 309 309 309 309 309 309 309 309 309
321 320 321 321 322 322 321 321 320 319 318 317 317 316 316 315 314 316 310 309 310 308 312 314 310 303 302 305 305 307 308 306 304 303 302 301 300 299 300 299 299 298 298 298 297 296 294 291 289 288 288 287 287 287 290 294 297 302 304 306 309 312 313 312 311 310 309 308 309 309 308 308 308 308 308 308 308 309 309 309 308 309 309 308 309
322 321 320 321 322 322 323 322 321 320 320 319 317 317 316 315 315 314 315 313 311 312 311 313 307 308 305 307 305 307 304 308 303 303 300 300 298 297 297 299 297 295 296 298 297 296 294 291 289 288 288 287 287 287 289 290 296 298 300 303 305 308 310 311 310 309 308 308 308 308 308 307 307 308 307 308 308 308 308 308 308 308 308 308 308
323 322 320 321 322 323 323 323 322 321 320 320 319 318 317 317 316 315 314 315 312 311 311 312 310 315 310 301 300 302 306 303 302 302 297 299 296 295 295 295 296 296 296 296 296 296 293 290 288 287 287 287 286 287 287 288 290 293 294 300 303 305 306 309 310 309 308 308 308 307 307 307 307 307 307 307 307 307 308 308 308 307 307 307 307
324 323 322 320 321 322 322 323 322 322 320 321 321 319 317 316 316 317 316 316 316 312 311 308 312 311 311 309 309 306 302 301 302 299 298 296 294 293 293 294 294 295 295 296 296 295 291 289 287 287 287 287 287 287 287 288 291 290 293 299 303 304 304 305 308 308 308 307 307 307 307 306 306 306 306 306 306 306 307 306 307 307 307 307 307
323 324 324 322 322 322 322 322 322 323 321 321 321 320 320 319 318 317 318 316 314 314 313 313 310 311 309 307 303 298 304 302 300 294 293 296 295 292 293 293 293 293 294 295 296 294 290 288 287 286 286 286 286 286 286 288 293 297 301 302 303 303 303 303 304 305 305 306 306 306 306 306 306 306 305 305 305 305 306 306 306 306 306 306 307
322 323 324 323 322 322 322 322 322 322 320 320 321 321 320 319 318 318 318 317 316 316 315 314 314 314 311 309 305 300 302 304 302 304 297 292 293 291 290 291 292 292 293 295 295 293 290 287 286 286 286 286 286 285 285 285 286 288 295 301 302 303 303 303 303 302 302 303 304 305 305 305 305 305 305 305 304 305 305 305 305 305 306 306 306
321 321 322 323 321 321 322 322 322 321 319 321 321 321 320 319 317 316 317 317 317 317 317 315 315 315 310 310 309 306 302 302 300 299 294 293 290 289 289 289 291 291 292 292 294 292 290 287 286 286 287 286 286 286 286 285 286 288 296 299 300 302 303 303 302 302 301 301 302 302 304 304 304 304 304 304 304 304 305 305 305 305 305 305 305
320 320 321 322 322 321 321 321 321 321 318 320 320 320 320 320 319 318 318 317 317 317 317 317 316 316 315 314 311 307 305 304 301 300 295 296 295 289 289 290 291 292 291 292 293 291 288 287 287 286 285 285 285 285 285 285 286 288 293 296 297 300 302 302 302 301 300 300 300 301 302 302 303 303 304 303 303 304 304 304 304 304 304 304 304
319 319 320 321 321 321 321 321 322 320 318 319 319 320 320 320 320 319 318 318 318 317 315 316 316 315 314 314 313 312 310 308 305 301 302 295 291 289 288 290 292 290 290 289 291 291 289 287 286 286 285 284 284 285 285 286 289 292 295 295 296 298 300 301 301 300 300 300 300 300 300 300 301 301 302 302 303 303 304 303 303 304 304 303 303
318 319 319 320 320 320 320 320 320 321 320 320 320 320 320 320 320 320 319 319 319 316 317 316 315 315 315 315 315 314 313 311 309 305 302 301 299 293 289 288 288 288 288 288 290 290 288 287 286 286 285 285 285 285 286 286 288 291 289 293 294 296 298 300 300 300 299 299 299 299 299 299 299 299 300 301 301 302 303 303 302 303 303 303 302
318 318 320 320 320 319 320 319 320 320 320 321 320 320 320 320 320 319 319 318 319 318 317 317 316 315 316 317 316 315 314 313 308 305 304 303 299 295 288 290 288 287 287 289 288 288 289 287 286 285 285 285 286 285 285 285 286 289 289 291 293 294 295 296 298 298 298 298 299 299 299 298 299 299 299 299 300 300 301 302 301 301 302 301 301
317 318 320 320 320 321 320 320 320 320 320 321 321 320 320 320 319 319 319 320 319 318 318 317 317 316 317 315 314 315 314 311 309 307 304 301 296 296 289 287 286 288 287 289 286 290 289 287 286 285 285 285 285 284 284 284 286 289 288 286 290 293 294 295 296 296 297 298 298 298 298 297 298 298 297 298 299 299 300 300 301 301 300 300 300
318 319 318 319 320 321 321 321 321 321 320 320 320 320 319 319 319 319 319 320 319 319 319 319 318 317 316 316 315 314 314 311 310 308 307 304 302 297 292 289 286 286 287 289 287 290 287 286 286 285 285 285 284 283 284 284 287 289 286 284 285 292 291 293 294 294 295 296 297 297 296 296 297 297 296 296 297 297 298 299 299 299 299 299 298
319 318 318 319 320 321 321 322 322 322 321 321 321 320 320 320 320 320 320 321 320 319 320 319 319 319 317 317 315 313 312 310 309 308 307 305 303 298 297 296 292 286 285 287 286 288 287 287 285 285 285 284 284 283 286 287 287 289 286 283 284 287 290 291 292 293 294 294 295 295 295 295 296 296 296 295 295 295 296 296 296 296 295 295 296
320 318 319 319 320 321 321 322 322 322 323 323 323 323 322 322 321 321 321 321 320 320 320 319 320 320 318 316 315 314 311 309 307 305 305 302 301 299 299 298 296 294 285 284 286 286 287 287 286 285 285 284 284 285 285 284 287 285 283 283 285 285 289 290 291 291 292 293 294 294 294 295 295 294 294 294 294 295 295 295 294 294 295 295 296
320 320 319 319 320 316 321 321 322 322 323 325 324 324 323 323 322 322 322 321 320 320 320 319 319 319 317 316 315 314 312 308 307 305 303 304 300 298 298 298 297 297 290 287 286 286 285 285 284 285 283 284 284 285 285 284 288 285 283 284 284 285 288 288 289 289 290 292 293 292 292 294 293 293 293 293 293 294 294 294 294 294 294 295 295
317 319 318 319 319 319 320 321 321 322 324 325 324 324 323 323 322 321 321 321 320 320 320 318 318 317 316 315 314 313 310 308 307 305 301 299 299 297 297 296 293 296 292 289 287 285 286 287 285 283 284 283 284 284 285 285 286 284 282 283 283 286 285 285 287 288 289 291 291 290 291 292 292 292 292 292 293 293 293 293 292 292 292 293 293
318 319 318 318 318 317 318 320 322 323 324 324 324 324 323 323 322 320 320 320 319 319 318 318 318 317 315 312 310 311 309 307 303 299 298 299 299 296 295 294 293 291 291 288 289 286 282 285 284 283 285 284 284 284 283 284 285 284 282 282 283 283 281 281 284 286 288 290 289 288 289 290 290 290 291 291 291 292 292 292 291 291 291 292 292
317 316 316 317 317 317 318 318 321 322 323 323 323 323 322 321 321 321 319 319 318 318 316 315 314 315 314 313 312 310 306 302 301 298 296 296 295 295 293 293 292 288 289 287 286 281 282 282 283 283 284 284 283 284 282 282 281 282 282 281 281 281 281 280 280 283 286 288 287 287 287 288 288 289 289 289 289 290 290 290 289 289 289 290 290
315 316 316 317 316 316 317 318 319 321 322 323 322 321 320 319 319 319 318 316 316 316 316 315 312 310 311 311 310 308 300 303 298 294 295 294 293 292 289 290 291 288 288 287 283 283 282 281 281 283 283 284 282 283 282 281 281 281 280 281 281 281 280 279 279 280 285 287 286 286 286 287 287 287 287 287 288 288 288 288 288 288 288 289 289
312 315 316 316 316 315 316 316 317 318 320 320 321 320 319 319 317 315 315 314 314 313 310 308 308 308 309 310 310 300 295 294 292 292 291 291 291 292 290 289 289 288 286 286 284 282 282 281 282 282 282 282 281 281 282 282 281 281 280 280 280 281 281 280 279 279 283 286 285 285 285 285 285 286 286 286 286 287 287 286 287 287 287 288 289
313 312 314 315 314 314 315 315 315 317 318 318 319 319 320 318 318 317 314 314 314 314 314 312 310 306 305 301 297 293 293 294 293 292 290 290 290 290 290 288 289 288 287 284 285 282 282 282 282 282 282 281 281 282 282 281 280 280 280 280 280 280 279 280 279 278 281 284 283 283 283 284 284 284 285 285 285 285 285 285 285 286 286 287 288
312 310 309 311 313 313 314 315 315 316 317 317 318 317 317 318 318 317 316 314 314 314 313 310 304 303 303 304 302 296 295 295 292 291 289 289 290 289 289 288 288 287 286 284 283 284 284 283 281 282 282 281 281 281 281 280 280 280 280 279 279 279 279 279 279 280 281 282 281 281 281 282 282 283 284 284 284 284 284 284 284 285 285 286 287
308 308 309 309 310 312 313 315 315 316 316 316 316 317 316 316 316 316 316 314 312 311 310 309 306 303 303 302 298 294 294 295 292 291 290 290 289 289 288 287 286 286 285 283 283 284 284 283 282 280 281 280 280 279 280 281 280 279 279 279 279 279 278 278 278 279 279 277 276 277 278 279 280 281 282 282 282 283 282 283 283 284 284 285 287
306 305 305 308 308 311 312 313 313 314 314 314 315 315 314 312 310 309 306 305 304 304 303 303 301 300 301 299 294 293 293 293 293 292 290 290 289 289 288 287 286 285 284 282 282 282 282 281 280 281 281 281 280 279 280 280 280 280 279 279 279 278 277 277 277 277 277 277 278 279 278 278 279 278 280 280 280 281 281 281 282 283 283 285 286
303 304 305 306 307 308 311 312 313 312 313 313 312 311 310 311 309 308 308 307 305 303 298 298 296 296 295 296 296 295 295 295 294 291 290 289 288 287 287 286 286 285 284 281 280 281 281 281 280 280 279 279 279 279 279 280 280 279 279 279 279 278 277 276 276 274 275 276 273 274 276 277 276 277 278 278 278 279 279 279 280 282 283 285 285
302 304 304 306 306 307 308 309 310 310 311 311 310 309 309 309 308 307 306 304 302 299 296 292 291 292 293 293 292 291 290 289 289 289 290 290 289 287 285 285 285 284 282 280 280 280 280 280 279 279 279 279 279 279 278 279 279 281 279 278 277 276 275 274 274 276 276 273 272 272 271 272 271 272 273 272 274 276 275 277 278 281 283 284 285
296 297 299 302 303 305 305 304 303 304 305 305 302 300 301 307 305 303 300 296 295 293 293 292 290 291 291 290 290 288 288 288 288 289 290 290 289 289 286 285 284 284 282 280 280 280 280 279 279 279 278 279 279 280 280 280 280 279 277 277 276 276 273 272 274 275 274 272 270 271 271 271 269 269 271 270 273 274 274 274 276 281 282 284 284
293 293 295 299 297 299 301 300 297 298 299 300 299 299 300 300 304 303 301 296 294 293 292 292 291 288 288 289 288 287 287 287 288 288 289 289 289 289 288 287 286 284 282 281 280 280 280 279 279 279 280 280 280 281 280 280 279 279 278 277 276 273 271 270 271 272 273 270 269 267 270 270 270 269 269 269 270 273 273 274 280 282 282 283 283
291 291 293 296 295 294 297 296 297 297 298 296 299 298 298 299 298 297 294 293 292 292 291 291 290 289 288 288 287 288 287 288 288 288 288 288 288 288 288 287 287 287 287 284 281 279 279 279 279 280 281 281 281 281 280 280 279 278 277 275 274 274 272 269 270 271 271 272 269 268 270 269 269 268 269 270 271 272 273 276 280 281 282 282 282
289 292 294 293 293 291 293 294 294 293 292 295 297 297 297 297 297 294 291 291 291 291 291 291 290 289 288 287 286 286 287 286 286 287 287 287 287 288 287 287 287 288 288 289 288 283 282 282 281 281 281 281 280 281 282 281 280 277 275 274 274 274 272 271 272 272 272 271 269 267 267 269 269 269 269 270 269 269 271 274 279 280 281 281 281
291 291 289 290 290 290 291 292 291 290 291 292 295 295 295 295 295 294 292 291 291 291 291 291 289 288 288 287 287 286 285 285 286 286 286 286 285 284 284 283 282 284 287 288 287 286 284 283 282 281 281 282 282 283 283 282 279 277 276 276 274 273 273 273 273 272 272 272 269 267 266 267 269 269 270 271 269 269 268 274 278 279 280 280 281
291 291 291 290 290 289 289 289 289 290 290 292 294 294 295 295 295 294 291 291 290 290 289 289 289 289 288 288 288 286 285 285 285 286 285 285 284 282 281 281 281 281 280 280 280 280 282 281 281 281 282 282 283 282 281 281 281 280 279 277 276 275 274 272 271 271 271 272 272 271 266 267 266 268 271 271 270 270 268 272 276 278 279 279 280
288 288 288 288 289 289 288 289 289 289 288 292 293 293 294 295 294 290 290 290 289 288 288 288 288 288 288 288 287 286 285 285 285 287 286 284 283 280 279 279 278 277 278 282 283 284 281 280 279 278 278 281 282 281 281 280 279 277 275 274 273 271 271 269 270 267 265 270 272 270 266 264 265 268 269 271 271 269 270 265 274 276 278 278 278
288 288 288 287 288 288 288 288 289 288 287 290 292 293 294 294 292 289 289 288 288 288 287 287 287 287 287 287 287 286 285 285 286 288 287 285 281 280 279 278 276 276 275 277 284 285 285 285 285 285 285 286 286 285 285 284 280 277 274 273 271 271 270 269 269 266 267 268 270 270 267 266 267 266 267 270 270 269 269 266 266 274 276 277 277
288 288 287 287 287 287 288 288 289 288 287 288 291 292 293 293 290 288 288 288 287 287 286 285 285 285 286 285 286 285 284 285 287 288 288 285 281 280 279 277 276 276 274 275 277 279 285 285 285 285 286 286 286 286 285 284 282 279 276 275 273 271 271 271 271 268 266 266 268 271 267 266 265 267 266 268 267 265 266 266 268 270 273 273 275
287 287 287 287 286 286 287 287 287 288 287 287 290 291 292 292 290 288 288 287 286 285 285 284 284 284 284 284 285 285 284 285 287 289 288 284 281 279 279 278 277 276 276 276 277 277 276 277 277 279 280 283 282 281 282 283 282 279 277 275 272 272 272 270 269 266 268 267 268 272 268 266 267 268 267 267 267 267 266 266 268 266 265 264 266
Wind_Speed
6 6 3 4 4 4 3 4 4 4 3 4 4 4 4 3 3 4 2 2 2 4 3 4 2 2 1 3 1 1 3 3 4 2 1 3 3 3 5 6 6 5 4 2 2 8 7 9 10 10 11 11 10 11 12 12 12 12 13 13 13 13 14 14 14 14 15 15 16 16 16 16 17 17 18 18 18 18 19 20 21 21 22 22 22
6 4 4 5 4 3 3 4 4 4 3 5 5 4 5 3 3 3 3 3 3 5 3 4 2 2 1 3 3 0 2 3 3 3 1 3 2 2 4 5 5 4 5 6 4 9 10 10 10 9 9 10 10 10 11 11 12 12 12 12 13 13 13 14 14 14 15 15 15 16 16 16 17 17 17 17 18 19 19 20 21 22 22 23 23
5 5 5 5 5 4 5 4 4 4 4 5 3 4 4 3 4 5 4 3 5 3 2 3 1 1 2 3 3 0 2 2 4 3 2 3 2 2 2 5 5 5 8 9 3 9 8 10 10 9 10 9 10 10 10 11 11 11 11 12 13 13 13 14 14 14 15 15 15 15 16 16 16 16 17 18 18 19 19 20 21 21 22 22 23
6 5 5 5 5 5 5 4 5 4 4 4 4 3 4 4 3 4 3 2 3 2 1 1 1 2 3 3 0 0 3 4 4 4 3 2 2 1 2 2 6 8 10 10 1 11 11 10 9 9 9 9 9 9 10 10 10 10 11 12 13 13 13 14 14 14 15 15 15 15 15 15 16 16 17 17 18 19 20 20 21 22 22 22 23
6 6 6 6 6 5 5 5 5 5 4 4 4 3 2 3 5 1 0 1 0 2 1 1 2 3 3 4 0 1 5 5 5 4 3 3 2 1 1 2 3 7 9 8 12 11 11 11 9 7 8 8 8 8 9 9 10 10 11 12 13 13 14 14 14 14 14 15 15 15 15 16 16 16 17 17 18 19 19 20 21 21 22 23 24
6 6 6 6 6 5 5 6 5 4 5 4 5 3 4 3 5 2 4 2 3 3 0 2 3 2 4 3 2 3 5 3 6 5 4 3 3 2 1 2 5 5 5 9 11 12 14 12 10 8 8 9 8 8 9 9 9 10 11 11 12 13 14 14 14 14 14 14 14 14 15 15 15 16 17 18 19 19 20 20 21 22 22 23 24
7 7 7 6 6 6 6 7 5 5 5 5 5 4 4 5 4 5 3 3 3 2 2 3 3 4 3 0 3 3 5 3 2 5 6 4 3 2 1 3 5 5 4 5 9 12 12 12 10 10 9 9 9 9 9 9 9 9 10 11 12 13 14 14 14 14 14 14 14 14 14 15 15 16 17 17 19 19 20 21 22 22 22 23 23
7 7 7 6 6 6 7 6 5 5 5 5 4 6 5 5 5 5 5 5 2 5 2 4 3 4 2 0 3 4 5 5 5 4 4 5 4 3 2 3 5 6 5 6 6 8 13 11 11 10 10 9 9 9 9 9 9 9 10 11 12 13 13 13 13 13 13 13 13 14 14 15 15 16 17 18 18 19 20 21 21 21 22 23 24
8 7 7 7 6 6 6 6 5 5 5 5 5 6 5 6 6 5 4 5 4 5 4 3 4 4 2 2 3 4 5 5 6 6 5 4 4 3 3 3 4 6 5 6 5 6 9 11 10 10 9 9 9 10 10 9 9 9 9 10 11 12 13 13 13 13 12 12 13 14 14 15 16 16 17 18 19 19 21 21 21 21 22 23 24
8 7 7 7 6 6 6 6 5 5 6 5 7 6 6 6 7 5 5 4 4 4 6 3 3 3 2 2 2 3 4 5 6 6 6 6 5 5 4 3 5 5 6 6 6 6 5 7 9 9 9 9 10 10 11 10 10 9 9 9 10 11 12 12 12 12 12 12 13 13 14 14 15 16 17 18 19 19 20 21 21 22 22 23 24
8 8 7 7 6 6 6 6 6 6 6 6 6 6 6 5 6 5 3 4 5 5 6 5 3 2 2 1 2 3 3 2 4 6 5 6 7 5 4 4 4 5 6 6 6 6 5 4 4 4 5 9 9 11 11 11 10 10 9 9 10 10 11 12 11 11 12 12 12 13 14 14 15 16 17 18 19 19 20 21 21 22 22 23 24
9 8 8 7 7 7 8 7 6 6 7 7 7 7 8 7 7 6 5 2 1 3 2 3 1 3 0 1 2 1 2 3 3 3 5 6 6 5 5 4 5 5 5 5 6 5 5 4 4 4 3 6 10 10 11 11 10 11 11 10 9 9 10 10 11 11 11 11 12 13 13 14 15 16 17 18 18 19 20 20 21 22 22 23 24
8 8 9 8 8 8 8 8 7 7 8 9 9 9 8 8 7 5 6 4 4 1 3 3 4 1 1 2 3 3 1 2 2 1 2 2 5 6 5 5 4 5 5 5 5 4 4 4 4 4 3 3 5 9 10 11 11 11 12 11 9 9 9 10 10 11 11 11 12 12 13 14 15 16 17 18 18 19 19 20 21 22 22 23 24
9 9 9 10 9 9 9 9 8 8 9 8 7 7 7 6 5 4 4 7 6 6 6 6 2 4 3 2 1 1 1 2 1 0 0 1 3 5 5 6 6 4 4 5 4 4 4 4 4 4 3 3 4 4 6 5 7 11 12 12 10 9 9 9 10 10 10 11 11 12 13 14 15 16 17 17 18 19 19 20 21 22 22 23 24
10 10 9 10 10 10 10 9 9 9 8 8 8 8 8 9 8 8 4 2 3 3 7 8 5 2 1 2 3 2 2 1 1 1 0 1 1 3 5 5 6 4 5 5 5 4 3 3 4 3 2 3 4 4 4 4 6 10 11 12 10 9 8 9 9 10 10 11 11 12 13 14 15 16 17 17 18 18 19 20 21 22 23 23 24
10 10 10 10 11 11 10 10 10 9 10 10 9 10 8 8 8 8 6 5 4 6 6 7 5 6 2 5 3 2 4 7 3 1 1 1 1 2 2 4 4 4 3 5 5 4 3 3 4 3 3 3 3 3 4 4 6 7 8 9 10 10 9 9 9 10 10 11 12 12 13 14 15 16 16 17 18 18 19 20 21 22 22 23 24
11 12 11 12 11 11 11 11 10 10 9 10 10 11 11 10 10 9 10 10 7 4 5 6 6 7 6 3 1 1 4 0 3 2 2 1 1 2 2 2 5 5 5 4 4 4 4 3 3 3 3 3 3 3 3 3 4 3 4 6 8 9 10 9 9 10 10 11 12 12 13 14 15 16 16 17 18 19 19 20 21 22 22 23 24
11 12 12 11 12 12 11 10 10 10 9 10 10 8 8 9 11 11 10 9 8 6 5 4 7 7 6 4 5 4 3 2 4 4 2 0 1 0 2 2 2 5 4 4 5 4 3 4 3 3 3 3 2 3 3 3 3 3 2 4 9 9 9 9 9 10 11 11 12 12 13 14 15 16 16 17 18 19 19 20 21 21 22 23 24
12 12 12 12 11 11 11 11 11 10 9 9 10 10 9 11 9 9 10 9 6 8 9 7 3 6 5 4 1 1 5 7 6 3 1 2 0 1 3 2 2 3 5 5 5 5 3 3 4 3 3 2 2 2 3 3 4 5 7 8 8 8 8 8 8 10 11 11 12 12 13 14 15 16 17 17 18 18 19 20 21 21 22 23 23
12 12 12 12 12 11 11 10 10 10 9 10 11 10 8 8 9 11 9 8 11 11 9 7 10 7 7 7 5 1 2 3 4 9 6 4 4 1 0 1 2 3 3 5 6 6 6 3 3 4 4 2 1 2 3 3 4 3 4 8 8 8 8 8 8 9 10 11 12 12 13 14 15 16 16 17 18 18 19 20 21 21 22 23 24
12 12 13 13 11 11 11 11 11 11 10 10 10 10 11 10 9 8 10 10 10 11 8 9 9 9 6 7 6 5 3 2 1 3 4 4 4 5 3 1 1 4 4 3 3 4 5 6 4 4 4 3 2 2 2 3 4 4 5 8 8 8 8 8 8 8 9 10 11 12 13 14 15 16 16 17 17 18 19 19 20 21 22 23 23
10 11 11 11 12 11 11 12 13 12 10 11 10 10 11 10 11 11 11 11 9 10 12 9 9 8 9 8 8 5 4 3 2 5 1 3 6 7 7 8 7 6 4 4 4 3 3 4 5 4 4 3 2 2 1 3 3 3 5 8 8 8 8 8 8 8 9 10 10 11 12 13 14 16 16 17 18 18 19 19 20 21 22 22 23
9 10 12 11 11 11 12 13 12 10 10 11 11 12 11 11 10 10 11 12 10 10 9 9 7 8 9 8 10 10 10 9 8 6 7 4 2 3 4 7 8 4 4 3 3 3 3 3 5 5 4 3 3 2 2 2 3 4 8 9 8 8 8 8 8 8 9 9 10 11 12 13 14 15 16 17 17 18 18 19 19 20 21 22 23
9 10 11 11 11 11 12 11 11 11 12 11 11 10 10 8 8 9 10 11 10 9 9 10 10 8 10 9 10 9 9 10 8 9 10 8 8 7 7 3 0 3 0 3 1 3 3 3 3 5 5 4 3 3 2 1 2 5 5 8 9 8 9 9 9 9 9 9 10 11 12 13 14 15 15 16 17 18 18 19 20 21 22 22 23
11 11 12 11 11 11 10 11 12 12 12 10 11 10 9 8 9 10 10 11 11 11 10 12 11 11 10 10 9 8 10 7 6 8 8 7 8 6 1 2 5 3 1 4 3 2 3 3 3 3 5 4 3 4 3 2 2 3 5 5 9 8 8 9 9 9 9 9 10 11 12 13 14 14 15 15 16 18 19 19 20 21 22 22 23
11 12 10 9 10 11 11 12 12 10 10 11 10 9 9 9 9 10 11 11 9 11 12 12 11 12 9 9 10 9 9 7 8 7 8 6 5 7 5 1 2 4 1 3 1 4 2 3 3 3 3 4 4 3 3 3 2 4 6 4 6 8 8 8 9 9 9 9 10 11 12 13 13 14 14 16 16 18 19 19 20 21 22 22 23
11 10 7 9 10 10 11 11 10 10 10 10 9 9 9 8 8 10 10 9 10 10 11 12 12 12 12 11 10 9 9 8 9 10 9 10 9 9 9 6 1 2 4 3 2 5 3 1 4 3 4 4 4 4 4 3 4 5 5 4 3 7 8 8 9 9 9 9 10 10 12 13 13 14 14 15 16 17 18 19 20 20 21 22 22
9 8 8 9 10 10 10 11 11 10 10 10 10 10 9 9 10 9 11 9 10 12 11 11 13 14 14 12 10 9 9 9 10 10 10 9 8 8 9 9 10 6 2 4 4 5 5 5 1 4 5 5 4 4 4 5 4 5 4 4 3 4 7 7 8 8 9 9 10 11 12 13 13 14 14 15 16 17 18 18 19 20 20 21 22
10 7 8 8 9 10 10 10 10 10 10 11 11 11 10 10 11 11 12 10 10 12 11 11 12 12 11 13 11 10 10 9 8 7 8 7 8 8 10 12 10 9 7 6 8 8 6 6 7 6 6 5 5 4 5 4 4 4 3 3 3 3 6 8 8 8 8 9 10 11 12 12 13 13 14 15 16 17 17 17 18 19 20 20 21
9 8 8 9 9 9 9 9 9 10 11 10 11 11 11 11 11 12 11 10 11 10 11 11 12 10 11 11 10 10 10 10 10 10 9 11 11 10 10 9 9 11 8 9 8 8 5 4 3 6 5 6 4 4 4 4 6 5 4 4 3 3 8 8 8 8 7 8 9 11 13 12 12 13 14 15 15 16 16 17 18 18 19 20 21
7 8 8 8 9 8 9 9 8 10 10 11 10 10 10 10 10 11 11 11 11 12 11 11 10 10 11 13 12 12 8 10 11 11 9 6 8 8 8 8 6 8 9 8 6 4 5 9 6 2 7 5 5 5 3 3 4 5 4 3 3 6 6 6 9 7 7 8 9 11 13 12 12 13 14 14 16 16 16 17 17 18 18 19 20
9 9 8 9 8 8 8 9 10 10 10 11 11 11 10 11 11 10 9 10 11 11 10 10 11 12 13 11 9 10 12 12 10 8 10 11 10 9 8 8 8 7 7 8 9 6 1 4 6 4 8 8 6 7 4 3 3 5 4 3 3 5 4 3 6 7 7 8 8 11 12 12 12 12 13 14 15 15 16 16 17 17 18 18 19
8 7 9 9 9 9 9 10 11 10 10 10 10 10 10 11 12 12 11 12 13 12 10 10 10 11 13 14 13 13 8 10 10 10 7 8 8 7 7 7 7 7 8 8 8 4 1 1 3 5 6 8 5 5 7 5 4 3 4 2 2 3 4 3 2 5 6 6 7 10 11 11 12 12 13 14 15 15 15 16 16 16 17 17 18
7 8 9 9 9 9 10 11 11 11 11 12 11 10 10 10 10 10 10 11 11 11 12 14 13 10 9 11 12 11 9 11 8 8 9 8 9 8 8 8 9 9 8 8 5 7 6 1 4 3 6 4 5 3 8 6 4 3 3 2 2 3 3 2 2 2 5 5 6 10 11 11 11 12 12 13 14 14 15 15 15 15 16 17 18
7 9 10 10 10 10 10 11 11 11 12 11 11 11 12 12 11 8 9 10 11 10 9 7 6 6 9 12 12 6 6 5 5 5 5 8 6 10 10 8 8 8 7 7 7 4 9 4 4 7 6 3 4 5 4 4 4 3 4 2 3 3 2 2 2 2 4 3 6 9 10 10 10 11 12 13 13 13 14 14 14 14 15 16 18
10 9 9 10 10 10 11 11 10 10 10 10 10 11 12 12 13 12 10 10 10 11 11 11 12 12 12 7 3 5 4 7 9 9 8 9 9 8 9 8 9 10 7 6 7 7 6 9 6 8 6 6 2 4 4 4 4 3 3 3 2 3 2 2 2 2 2 2 5 8 9 9 9 10 11 12 12 12 13 13 13 13 15 16 17
9 8 8 7 9 9 10 10 10 10 10 10 10 10 9 9 11 12 11 11 13 13 12 9 5 4 5 9 11 12 12 10 8 9 9 11 10 9 9 8 8 7 6 6 6 7 10 10 8 3 4 3 2 3 5 6 3 3 2 3 2 1 1 2 1 0 2 2 4 6 8 8 9 9 10 12 12 12 12 12 12 13 14 16 17
7 7 8 7 8 9 9 9 9 10 9 10 11 11 11 11 11 11 12 12 11 11 10 9 9 9 9 8 3 4 8 11 9 8 8 11 9 9 9 8 7 5 8 6 6 7 10 10 12 7 4 6 4 3 3 4 5 3 2 2 2 1 2 2 0 1 1 1 1 2 4 6 7 9 10 11 11 11 12 11 11 12 14 16 17
7 7 6 7 7 8 9 8 9 9 9 9 10 10 9 8 7 6 5 5 4 4 4 4 3 4 6 6 5 5 6 7 11 13 11 9 9 9 9 9 8 8 7 7 7 8 9 10 4 6 8 2 4 5 2 2 4 2 3 1 1 2 1 0 2 1 2 2 2 3 4 5 6 5 8 10 11 11 11 12 12 13 14 16 16
6 6 7 8 7 7 8 8 8 8 8 8 8 8 8 9 9 9 9 8 8 7 5 2 3 3 4 5 9 12 13 11 7 5 8 8 5 7 5 7 9 8 6 6 6 8 9 9 8 8 4 5 4 4 3 3 3 0 2 3 5 3 2 1 3 2 1 0 2 3 3 5 5 6 7 9 10 11 12 11 12 12 14 15 15
6 6 6 7 7 7 6 6 7 6 8 8 7 8 8 8 7 6 5 5 7 7 5 4 4 4 5 5 4 2 2 4 6 9 11 12 11 8 6 8 9 9 8 6 6 7 6 8 6 5 6 6 5 7 5 4 7 7 5 4 3 1 1 3 3 2 1 1 2 3 3 1 3 3 4 3 4 7 8 11 10 12 14 15 15
5 5 5 5 6 6 6 6 5 4 5 4 6 10 9 8 6 5 4 3 3 4 5 5 4 4 4 4 5 10 13 14 14 14 14 13 11 10 12 11 11 10 9 8 7 7 8 9 9 10 8 8 9 9 8 7 4 5 6 5 4 1 0 4 4 1 1 1 3 5 5 1 0 3 1 2 4 4 4 5 6 9 13 15 15
3 4 4 5 5 5 5 5 4 4 4 3 5 6 8 10 7 6 7 5 5 5 4 4 5 5 4 4 4 6 8 8 8 10 11 12 12 11 14 17 16 16 11 9 8 9 10 9 9 9 10 11 10 9 8 7 5 7 6 6 4 3 3 1 5 1 1 2 1 2 6 1 1 3 3 2 3 4 4 5 11 13 14 15 15
4 3 4 5 5 4 5 4 5 5 5 7 9 7 6 5 4 3 3 5 5 5 4 5 5 6 6 6 4 5 5 7 8 10 11 14 14 14 15 14 14 13 12 14 14 8 7 9 9 11 10 10 10 9 7 7 8 5 5 5 5 5 4 3 3 3 0 1 1 2 7 1 0 1 4 3 2 3 5 8 12 13 14 14 15
4 5 5 4 5 4 4 4 4 4 4 3 4 5 7 8 8 6 3 4 5 5 5 6 7 7 7 7 6 4 4 7 7 7 9 10 11 13 13 14 13 12 11 11 10 12 16 12 13 11 11 10 10 10 11 11 8 9 6 6 6 5 3 4 5 2 0 1 2 1 4 2 0 2 4 4 1 2 4 7 11 12 13 14 15
5 4 4 4 3 3 4 4 4 3 3 4 5 7 7 8 10 8 6 6 6 6 7 7 7 8 9 9 8 8 7 8 7 7 7 8 8 7 7 8 8 8 8 8 11 8 10 12 13 13 12 9 12 12 11 10 12 10 10 8 7 6 6 5 1 1 1 1 1 0 3 3 1 2 5 2 0 3 3 7 9 11 13 14 14
5 5 5 4 4 3 3 3 3 3 4 6 7 8 9 10 10 8 5 6 6 5 6 6 8 9 9 10 9 9 8 8 8 10 10 10 9 8 8 8 7 6 4 4 5 4 6 3 6 8 10 9 5 8 11 10 10 8 9 6 8 6 4 3 1 1 1 2 3 1 3 4 2 3 5 4 3 4 3 5 7 9 12 13 14
2 3 2 3 4 4 4 4 4 4 3 6 8 9 10 11 12 7 6 6 6 5 6 6 7 7 8 9 9 9 10 10 11 14 11 10 9 9 9 6 6 4 2 1 1 3 1 1 1 2 3 5 7 9 10 9 9 11 10 9 8 6 5 2 2 2 1 1 2 3 1 4 0 1 5 4 4 5 3 2 5 7 11 12 13
4 4 5 3 3 4 4 4 4 3 3 4 7 9 11 13 9 5 5 4 5 6 6 5 6 7 7 8 8 9 10 10 13 17 16 13 11 11 10 8 5 4 2 2 4 6 6 7 8 8 10 10 11 13 15 15 11 10 9 8 6 6 6 4 2 2 4 2 2 4 3 4 1 0 6 5 5 6 4 2 2 4 9 11 13
5 5 4 3 3 3 4 4 4 4 4 6 9 10 12 13 8 5 4 4 4 4 4 4 4 4 6 10 8 8 9 10 15 17 17 13 10 11 11 10 8 7 4 2 3 3 8 9 9 10 11 11 12 14 15 16 17 13 11 10 8 8 6 5 5 3 3 2 5 5 3 5 2 0 3 6 4 2 2 3 2 2 5 7 11
4 4 4 4 3 3 3 4 6 6 5 6 8 10 11 12 8 4 5 4 5 3 4 4 3 3 4 6 10 9 8 8 15 16 16 12 9 9 10 10 11 10 8 7 7 7 5 5 4 6 6 7 7 6 8 15 15 9 4 6 9 9 7 6 5 2 2 5 6 7 5 3 2 1 2 5 4 3 2 2 2 2 2 1 3
Wind_Direction
200 213 199 215 217 198 196 208 211 217 191 216 211 221 225 221 238 249 255 263 258 272 275 274 283 286 256 276 285 360 113 128 131 131 112 84 52 33 46 50 35 22 21 48 121 124 126 110 98 91 89 92 90 86 84 80 75 71 68 65 63 59 56 54 51 48 45 42 39 37 34 31 27 26 23 21 18 14 15 12 11 7 6 5 2
204 208 194 223 225 206 202 217 216 210 194 214 213 212 223 216 236 257 253 258 254 254 247 255 281 295 284 281 273 153 148 152 115 122 126 81 52 40 44 59 40 4 333 309 145 116 117 116 103 97 98 96 89 85 82 79 78 73 68 66 64 60 56 53 50 47 45 41 38 35 32 29 27 24 21 19 15 13 14 11 9 7 5 3 2
201 198 204 220 221 211 221 222 235 223 204 225 211 214 224 218 214 220 223 229 242 255 201 229 216 281 291 265 271 108 98 110 123 122 104 90 37 22 40 52 37 2 345 324 149 125 117 110 105 109 105 100 95 89 83 80 77 74 71 67 63 62 56 51 49 46 43 41 37 33 30 28 25 22 19 16 14 13 12 9 7 7 4 0 1
201 199 203 212 221 217 222 216 233 228 210 228 226 225 222 237 236 231 245 212 252 293 38 346 331 286 301 280 66 118 99 140 133 136 117 91 60 19 16 42 36 22 5 335 144 117 116 108 107 109 108 104 99 93 89 84 78 74 70 65 62 59 56 51 47 44 41 38 35 32 26 26 23 21 17 15 13 13 11 8 7 6 2 1 1
201 201 202 211 216 217 221 224 232 224 213 222 230 238 247 264 269 273 239 109 4 292 336 7 317 299 300 290 209 196 115 139 137 129 134 127 102 55 21 40 47 32 16 40 79 98 100 97 98 101 98 98 95 92 89 85 79 74 69 66 61 57 54 50 47 42 39 36 33 29 26 23 21 18 15 13 14 12 10 7 7 4 2 1 1
196 203 201 210 215 216 216 226 228 219 214 208 221 218 226 234 242 174 229 184 220 229 234 291 293 286 264 266 234 206 134 192 156 148 143 142 139 117 84 55 62 56 32 42 72 84 89 89 94 95 92 89 90 88 84 82 80 74 68 65 61 56 51 48 45 41 38 35 31 26 24 22 19 15 14 13 12 10 8 6 6 4 1 1 359
201 198 204 205 212 218 218 224 217 209 208 209 207 220 214 224 211 204 224 230 249 243 202 225 242 281 289 273 239 148 136 160 156 148 154 153 132 130 116 94 80 76 58 58 55 64 80 87 84 80 83 85 85 86 83 78 78 73 69 64 59 55 51 47 43 41 36 33 29 26 23 21 16 14 14 13 11 8 7 7 5 3 1 0 359
203 199 204 206 210 217 222 222 214 199 212 210 201 220 218 226 223 205 220 253 258 271 234 261 254 270 272 359 233 138 140 141 151 157 157 140 140 142 137 109 97 90 85 71 67 61 64 73 77 73 75 78 79 79 81 78 74 72 68 64 60 55 51 47 42 40 35 30 27 25 23 19 14 15 13 11 9 7 7 6 4 2 0 360 358
204 201 202 208 211 218 227 218 206 202 208 212 209 219 208 217 227 221 199 224 214 242 275 240 259 245 235 206 226 146 168 175 167 163 143 146 148 147 144 125 109 103 97 88 79 72 64 62 61 55 56 70 75 73 71 72 71 69 66 63 60 55 52 47 42 38 34 29 26 26 21 17 15 14 12 10 8 7 7 5 2 1 360 359 358
205 203 205 210 211 214 225 216 197 201 211 209 220 212 211 203 224 219 205 195 208 218 242 245 230 231 193 234 269 185 189 180 163 152 159 153 161 162 167 145 121 117 109 103 96 82 72 59 55 47 45 63 71 70 68 63 61 63 63 61 59 56 52 48 42 35 32 28 26 25 20 17 15 12 12 9 8 6 5 3 1 0 359 358 357
207 203 205 210 212 216 223 216 197 203 207 210 219 215 212 210 215 225 215 213 196 202 207 191 206 178 139 303 317 231 177 166 153 155 176 167 162 161 146 152 132 126 121 114 106 99 89 78 71 54 41 54 63 64 62 60 57 56 58 57 57 57 54 49 42 35 31 27 26 24 20 16 14 12 10 8 7 5 3 2 1 359 358 357 356
209 203 205 208 210 215 220 217 204 199 206 209 216 211 208 206 222 210 203 226 231 198 162 125 70 78 18 332 350 343 151 161 188 195 165 168 163 152 160 156 138 135 130 126 116 112 104 95 79 63 47 47 57 58 55 53 54 54 49 51 54 54 54 49 43 37 32 26 26 23 19 15 13 12 8 8 5 2 3 1 359 359 357 356 356
210 202 205 207 210 214 216 221 208 204 208 213 211 210 207 201 203 197 193 199 241 196 208 158 139 157 8 11 2 12 37 125 184 174 183 164 149 154 152 148 154 145 144 129 123 120 116 105 94 77 57 58 44 49 51 42 46 53 48 44 48 50 50 48 41 37 32 26 24 21 19 15 12 10 7 8 4 1 2 360 358 358 356 356 355
206 206 207 204 209 212 213 217 207 210 214 215 211 208 203 201 184 207 215 192 212 189 196 139 191 189 177 285 350 10 16 62 102 64 73 168 174 157 164 162 163 156 133 128 127 123 123 118 106 91 66 66 65 55 45 38 31 46 48 40 39 46 47 46 44 36 32 26 21 19 17 15 10 8 9 5 4 0 0 359 358 358 356 355 354
208 208 207 208 211 210 214 213 209 204 206 213 207 208 203 201 192 197 205 237 226 218 186 191 179 148 125 105 245 227 262 4 55 95 95 158 165 176 174 172 170 161 151 136 136 133 128 126 117 107 94 78 70 61 52 45 43 44 43 39 35 38 42 43 40 35 30 25 19 17 16 14 9 7 7 4 3 360 359 357 358 357 356 354 353
211 209 211 212 210 212 211 211 212 203 206 208 206 211 202 204 201 204 181 198 209 224 199 201 150 136 226 206 206 166 273 223 183 217 121 136 189 219 189 181 165 146 144 157 157 144 134 127 120 124 117 90 76 70 63 48 40 37 28 33 36 36 34 37 35 33 29 23 18 16 15 12 8 7 5 4 0 359 358 357 357 356 354 353 352
211 211 210 214 212 214 213 213 212 208 207 213 211 211 205 202 195 197 197 203 208 215 218 201 206 202 156 93 6 256 218 337 130 251 95 161 243 212 233 174 175 173 171 168 146 147 141 124 119 116 119 95 83 78 69 54 49 37 27 37 42 42 34 30 30 31 27 23 17 15 13 10 7 6 4 3 358 358 357 356 357 355 353 352 351
214 214 214 214 216 215 215 214 215 213 208 216 219 212 209 203 202 202 208 209 200 194 221 220 214 221 209 183 158 180 168 217 134 249 14 181 318 236 233 229 202 173 170 157 160 150 143 138 132 136 119 106 94 82 78 66 55 29 56 50 53 44 41 31 27 26 26 21 17 13 10 9 7 4 3 0 358 356 357 354 356 354 352 352 350
218 216 216 214 217 216 215 216 217 216 212 216 220 215 211 210 202 205 210 200 186 206 208 203 195 242 230 228 117 127 159 131 204 82 284 286 268 192 238 218 214 193 173 177 163 150 158 143 146 140 127 123 117 98 79 64 53 34 59 61 54 47 43 39 31 27 22 18 15 10 9 6 6 5 359 357 357 355 356 354 354 353 352 351 350
218 218 218 216 215 218 216 218 219 219 211 216 221 218 214 215 206 208 205 198 199 210 211 191 193 214 197 222 222 131 197 190 152 180 172 178 235 261 355 212 212 236 208 176 171 170 158 159 154 137 130 139 144 109 97 84 66 41 36 60 54 46 44 41 35 30 25 15 12 8 6 5 2 1 358 355 356 354 356 353 351 352 351 351 350
221 221 220 219 214 217 215 217 218 219 211 219 222 216 212 210 204 203 208 210 206 212 206 206 203 212 165 222 213 213 197 197 151 152 150 167 239 192 217 356 228 247 228 204 192 174 165 160 160 143 136 151 158 135 101 90 76 55 53 57 52 44 39 40 34 31 24 17 11 8 4 3 1 359 356 356 354 354 354 353 351 350 350 351 349
223 223 225 221 220 216 218 219 219 219 213 218 217 217 217 214 209 207 208 211 210 208 213 211 205 207 195 189 198 199 193 198 187 175 178 190 189 198 192 180 204 223 180 194 186 170 153 149 140 135 133 149 162 135 105 88 87 72 64 61 54 43 37 36 34 28 22 16 12 7 3 1 1 359 356 355 353 353 352 352 350 349 349 350 348
218 223 223 220 220 218 218 222 221 219 216 217 217 217 216 213 213 210 211 212 212 211 217 220 205 205 204 195 202 197 201 200 196 188 188 180 147 220 193 201 204 194 228 170 176 166 155 158 149 149 148 156 163 139 122 99 76 79 76 70 58 48 36 35 34 27 20 15 13 6 4 1 359 359 357 354 353 351 349 350 350 349 349 349 348
217 221 221 216 216 220 220 221 222 220 220 218 221 219 217 212 211 210 215 217 218 212 213 217 212 209 210 205 211 208 212 210 200 186 189 203 190 200 189 162 150 203 126 103 106 155 166 181 178 156 157 155 168 162 147 115 90 82 72 67 63 51 38 32 31 27 19 15 11 6 4 1 358 359 357 354 351 349 349 348 349 349 350 349 348
221 219 223 209 212 220 215 216 221 221 222 218 223 218 213 212 212 214 216 214 214 211 212 216 209 209 213 211 212 210 216 212 179 189 205 190 187 185 204 148 170 164 193 146 181 140 178 199 170 176 154 160 164 158 152 138 125 96 84 63 68 57 45 34 30 22 18 12 9 7 3 360 358 357 358 354 350 348 347 349 348 349 349 348 348
221 221 219 206 214 218 215 220 222 222 219 222 221 217 213 213 213 216 216 218 214 213 218 218 214 217 212 208 209 211 216 193 195 184 187 167 185 186 155 99 89 172 136 174 185 136 224 170 163 164 158 162 167 159 156 159 147 113 95 82 59 59 50 39 31 24 17 9 9 6 3 359 356 357 358 354 350 347 347 348 348 348 347 347 348
221 226 206 206 213 215 217 220 220 219 218 219 220 216 214 215 217 220 222 217 216 213 219 217 218 216 212 212 209 210 207 198 195 201 187 189 186 177 157 154 156 155 180 188 189 221 166 169 164 174 185 171 171 170 162 164 150 126 103 88 66 57 56 41 34 26 16 11 7 7 3 359 356 357 358 354 349 347 348 347 348 347 346 347 347
225 215 211 205 212 215 215 220 218 216 216 217 216 215 212 213 220 220 225 215 219 217 221 218 222 217 215 214 208 207 207 201 197 198 190 191 186 168 174 179 175 215 165 197 204 231 169 153 201 192 181 180 184 169 169 152 143 125 108 101 90 62 57 46 37 26 20 10 6 8 2 358 357 357 356 351 347 347 347 347 346 345 344 345 345
222 206 212 206 211 212 214 218 217 215 216 217 217 217 213 215 219 221 225 216 218 220 218 219 223 220 219 213 209 203 201 197 203 199 192 176 173 177 183 185 187 188 183 203 215 198 223 190 166 211 179 181 172 170 153 162 149 132 119 107 104 83 65 54 38 31 19 10 6 8 1 359 357 357 353 348 346 345 345 345 345 344 343 344 344
213 211 204 208 211 209 214 216 215 215 219 219 218 218 215 217 218 221 222 215 217 219 218 220 223 222 223 215 207 203 197 188 197 198 190 188 177 179 189 199 179 193 185 192 220 197 187 195 178 165 178 177 164 161 160 162 143 129 119 115 105 98 75 58 42 33 20 11 8 7 1 360 358 354 349 346 345 344 343 342 342 343 344 344 344
208 210 204 209 210 209 211 216 213 217 219 221 218 218 215 219 218 222 218 216 218 219 216 212 220 220 221 213 204 208 198 197 198 198 183 163 179 179 190 189 190 201 178 182 206 237 157 187 215 184 154 169 164 149 138 136 137 125 120 117 111 97 86 55 41 32 22 12 9 4 1 1 357 352 346 345 342 341 341 341 342 343 344 344 343
213 209 203 210 208 207 208 213 216 218 218 219 217 217 214 219 220 222 219 215 221 222 222 217 216 209 206 212 212 210 203 199 192 178 181 182 175 176 185 188 188 185 170 178 203 198 251 198 157 152 155 147 155 145 141 125 114 118 122 120 120 102 81 67 34 30 25 10 10 2 2 360 355 350 346 344 341 340 341 340 342 344 344 344 342
210 200 208 210 207 207 209 211 216 218 218 218 215 216 217 220 220 219 216 213 217 220 218 221 218 211 211 217 220 217 195 189 190 181 177 175 167 175 178 177 183 175 170 179 183 142 63 57 121 150 149 137 148 157 144 146 135 124 115 115 120 104 95 78 37 16 21 8 12 4 2 358 353 350 346 344 340 340 340 341 343 344 344 344 341
196 205 210 211 207 206 209 212 215 217 218 219 216 216 220 225 227 219 216 213 219 222 214 213 204 208 217 219 217 212 194 200 180 164 173 166 171 166 176 182 186 183 185 163 166 147 169 141 86 109 143 155 125 181 157 153 158 151 132 143 103 96 101 90 99 4 3 4 14 7 3 354 349 347 343 342 340 340 339 340 343 344 344 342 340
204 207 212 210 209 208 211 214 214 216 218 219 216 214 216 218 220 216 212 210 215 218 218 228 238 233 219 213 219 187 172 141 123 156 159 170 171 176 176 182 186 184 182 172 140 143 151 163 153 151 165 152 143 171 151 141 149 155 141 122 106 103 100 112 73 48 342 12 15 13 1 349 344 342 339 339 339 339 338 340 343 342 342 342 342
211 214 211 212 210 210 215 216 216 217 217 218 218 215 216 215 217 217 211 212 215 219 222 223 216 201 207 216 194 158 163 161 175 172 172 162 168 180 173 177 171 171 180 202 180 135 157 140 189 170 168 142 108 116 123 130 141 142 144 135 108 98 102 75 59 39 317 10 16 10 356 344 338 335 335 336 338 337 339 341 342 342 343 343 343
216 210 216 213 214 214 217 217 216 217 217 216 220 225 228 228 226 223 219 218 220 222 223 226 216 213 231 214 200 177 176 179 180 172 175 171 174 172 176 173 177 171 164 185 173 148 147 154 144 173 147 96 112 135 159 148 147 130 107 99 102 113 82 60 50 39 305 360 9 358 347 337 330 327 331 335 338 339 341 342 343 342 343 342 343
213 213 211 209 211 216 216 217 215 216 214 215 219 221 222 223 226 225 223 224 222 222 221 216 197 184 195 222 240 200 185 181 176 184 182 176 166 171 167 164 153 154 167 170 161 151 151 153 152 142 176 151 136 150 201 177 148 138 115 98 95 103 59 12 217 204 221 210 236 328 333 322 317 321 328 336 338 338 342 342 343 343 342 342 344
212 210 211 211 214 215 219 216 217 215 215 215 220 224 226 225 227 232 234 222 218 219 218 217 235 223 196 178 140 158 200 200 182 183 180 175 177 172 173 165 161 163 168 168 155 146 146 141 131 144 139 124 135 153 174 102 87 121 159 160 260 158 102 357 285 238 196 242 274 301 308 307 310 315 321 335 337 338 343 342 343 343 342 342 345
215 211 208 210 215 211 219 218 218 215 216 217 217 217 213 213 212 214 210 209 208 206 197 153 135 160 184 180 180 186 195 198 192 157 146 154 150 156 166 151 152 153 165 166 153 146 147 148 149 155 143 136 109 63 86 113 90 312 173 176 226 221 213 222 232 248 264 216 295 312 310 306 316 318 328 335 334 338 342 341 332 336 338 342 345
210 214 211 207 210 215 220 221 222 220 218 215 208 203 207 211 209 214 220 222 206 189 161 138 137 150 166 174 170 115 89 94 154 167 173 168 157 154 156 159 165 168 164 173 166 148 142 131 109 112 127 136 158 145 154 178 195 201 161 153 205 203 288 305 275 216 219 321 314 317 302 262 301 307 316 322 321 335 329 329 315 324 339 344 345
207 206 206 205 202 205 210 219 226 226 223 225 227 223 216 211 194 186 175 170 180 187 169 155 162 161 157 150 159 164 165 166 172 178 176 172 177 176 166 169 172 171 172 166 168 160 147 150 157 155 154 174 178 186 181 192 147 100 128 138 195 175 327 283 279 218 73 35 354 323 300 282 214 288 300 312 306 327 308 308 301 334 341 346 346
198 200 182 192 195 192 198 203 209 217 228 228 221 213 211 201 199 200 199 190 169 169 175 173 169 143 131 145 154 164 167 171 167 167 163 172 183 186 180 179 176 171 166 168 173 167 167 166 164 165 172 177 191 184 186 161 169 176 176 168 167 136 192 241 273 355 118 70 357 312 300 299 117 305 310 299 300 311 316 298 326 339 344 348 348
207 172 177 191 194 188 188 189 192 200 209 207 194 193 206 223 211 181 158 163 166 165 165 170 152 147 158 155 153 155 164 171 168 166 171 179 186 186 185 188 188 186 184 173 167 176 176 156 167 185 174 183 178 173 171 156 174 170 164 156 169 178 177 194 216 240 152 98 92 294 286 294 64 275 305 292 288 286 298 313 329 341 348 350 350
164 176 199 186 196 188 174 182 200 206 216 209 194 172 166 164 151 130 133 148 159 172 171 167 160 160 157 154 150 159 184 176 170 178 170 177 185 182 183 187 195 205 208 228 234 194 171 170 173 181 187 172 164 189 184 178 156 163 151 170 186 177 169 185 221 212 124 122 63 14 285 291 82 305 300 283 238 288 308 311 320 345 350 352 351
180 186 176 187 180 171 178 185 199 188 183 179 170 163 162 158 152 148 157 165 172 173 176 172 165 164 164 161 160 173 178 172 177 180 178 170 169 165 174 184 194 209 210 220 204 217 202 179 170 180 199 168 178 187 177 153 153 170 170 193 169 171 186 203 127 140 95 71 126 104 317 298 7 338 289 264 181 304 283 287 308 343 352 354 353
182 187 185 189 189 171 161 156 160 173 189 180 170 163 162 161 159 152 158 166 170 173 172 169 169 170 171 173 177 176 170 177 182 181 177 174 167 171 171 184 191 194 194 191 201 208 199 215 205 189 173 182 157 144 153 165 167 158 165 162 165 160 125 78 50 76 321 142 159 126 250 277 328 331 273 282 300 294 272 294 294 337 352 356 354
153 133 131 142 162 170 168 161 157 181 197 185 171 169 165 166 160 159 167 166 166 167 167 170 168 173 174 172 168 172 176 183 188 185 178 164 164 166 174 180 179 170 167 360 5 31 32 50 58 81 134 134 128 143 152 147 119 105 94 86 85 97 112 86 221 345 260 291 159 135 233 278 209 272 277 296 301 291 291 270 272 324 350 356 353
160 168 172 167 164 157 158 164 169 171 172 194 179 174 173 166 158 162 159 151 159 165 170 169 170 171 176 177 176 175 177 186 183 180 173 161 170 170 168 171 170 150 130 43 85 81 81 87 99 112 123 130 134 140 143 139 135 129 118 109 143 144 139 180 242 109 256 193 210 152 140 287 277 126 294 289 292 287 277 258 265 306 345 351 352
171 178 151 125 128 143 155 167 167 159 187 201 184 178 172 169 159 155 154 151 148 152 151 159 162 174 183 181 179 176 183 192 184 180 173 165 173 175 166 159 160 165 170 125 96 101 109 109 111 115 120 124 129 136 143 144 144 147 146 177 168 146 172 180 200 188 259 241 220 158 116 227 289 261 290 285 300 261 260 251 253 291 338 347 348
159 146 140 135 129 134 159 160 166 169 182 200 192 178 173 165 152 141 146 144 148 158 152 149 136 152 179 193 193 192 193 182 180 182 175 170 175 175 172 162 172 184 181 164 153 138 123 107 94 98 103 118 123 130 151 155 156 161 142 116 137 162 172 181 173 107 304 255 206 173 163 246 135 240 132 341 327 263 199 253 262 296 293 309 342